« Back
NWS Peachtree City, Ga » Text Product » GA Regional Weather Roundup


Printer-friendly Version
Current Version              Previous Versions:   1  2  3  4  5  6  7  8  9  

Regional Weather Roundup

754
ASUS42 KFFC 281403
RWRGA
WEATHER ROUNDUP FOR GEORGIA
NATIONAL WEATHER SERVICE PEACHTREE CITY GA
1000 AM EDT SUN AUG 28 2016

NOTE: "FAIR" INDICATES FEW OR NO CLOUDS BELOW 12,000 FEET WITH NO
SIGNIFICANT WEATHER AND/OR OBSTRUCTIONS TO VISIBILITY.

* = USE WITH CAUTION. THE STATIONS MARKED WITH AN ASTERISK MAY NOT
REPORT WEATHER SUCH AS PRECIPITATION, FOG, OR THUNDER AND ARE NOT
QUALITY CONTROLLED BY NWS.

THE REMARK "TC" DENOTES TEMPERATURE READING IN DEGREES CELSIUS.

GAZ001>058-281500-
NORTH GEORGIA

CITY           SKY/WX    TMP DP  RH WIND       PRES   REMARKS
ATLANTA        MOSUNNY   79  72  79 NE7       30.19R
ATHENS         PTSUNNY   78  73  84 N5        30.19R
CHAMBLEE       PTSUNNY   78  70  76 CALM      30.19S
PEACHTREE CITY SUNNY     79  71  76 E5        30.18R
ROME           SUNNY     82  70  66 E5        30.18R
WEST ATLANTA   PTSUNNY   79  70  74 NE8       30.18R
GAINESVILLE    PTSUNNY   79  69  71 E13       30.24R
CARTERSVILLE   MOSUNNY   80  70  71 VRB7      30.19R


CITY           SKY/WX    TMP DP  RH WIND       PRES   REMARKS
DALTON*        SUNNY     81  72  74 CALM      30.19S
LAWRENCEVILLE* PTSUNNY   77  72  83 E7        30.19S
MARIETTA       MOSUNNY   78  70  76 E6        30.20R
KENNESAW*        N/A     77  70  78 CALM      30.16S
CANTON*        PTSUNNY  N/A N/A N/A NE6       30.23R
BLAIRSVILLE*     N/A    N/A N/A N/A MISG      30.26S
$$

GAZ059>098-102>109-281500-
CENTRAL GEORGIA

CITY           SKY/WX    TMP DP  RH WIND       PRES   REMARKS
AUGUSTA-BUSH   PTSUNNY   83  72  69 E7        30.14S
AUGUSTA-DANIEL MOSUNNY   83  71  67 E7        30.16R
COLUMBUS       SUNNY     80  72  76 E8        30.13R
MACON          SUNNY     81  71  71 NE5       30.14S
ROBINS AFB     SUNNY     81  73  75 E6        30.13S


CITY           SKY/WX    TMP DP  RH WIND       PRES   REMARKS
LAGRANGE*      SUNNY     82  75  80 SE5       30.16S
MILLEDGEVILLE* MOSUNNY   81  73  78 CALM      30.16R
$$

GAZ099>101-110>166-281500-
SOUTH GEORGIA

CITY           SKY/WX    TMP DP  RH WIND       PRES   REMARKS
SAVANNAH       MOSUNNY   85  74  69 NE10      30.11R HX  92
VALDOSTA       MOSUNNY   84  77  79 E8        30.08R HX  94
ALMA           SUNNY     83  74  74 E5        30.10R
ST SIMONS      MOSUNNY   84  72  67 E14G24    30.08R
FT STEWART     SUNNY     84  74  71 NE8       30.08R HX  91
ALBANY         MOSUNNY   84  73  69 E10       30.11S HX  90
HUNTER AFB     MOSUNNY   85  79  83 NE10      30.08R HX  98
MOODY AFB      MOSUNNY   83  74  73 E8        30.08R
BRUNSWICK      PTSUNNY   88  75  66 NE13      30.09R HX  97


CITY           SKY/WX    TMP DP  RH WIND       PRES   REMARKS
BAINBRIDGE*    MOSUNNY   84  73  70 E3G16     30.07F HX  91
MOULTRIE*      SUNNY     81  73  78 E6        30.10S
VIDALIA*       SUNNY     84  77  79 E12G17    30.12S HX  94
WAYCROSS*        N/A     87  78  74 E10       30.10R HX 101
DOUGLAS*       SUNNY     82  72  69 E8        30.12R
$$




USA.gov is the U.S. government's official web portal to all federal, state and local government web resources and services.